PAL167 RPVP-RPLL

Flight info

Callsign PAL167
Flight time 0h 55m
Altitude 37000
Route DABOY1E DABOY W281 LEGED N884 LUBAN LUBAN5R
Aircraft B77W/H-SDE1E2E3FGHIJ2J3J4J5M1RWXY/LB1D1

Departure

Time 2026-04-22 07:30
Airport Puerto Princesa International Airport / PAF Antonio Bautista Air Base (RPVP)

Arrival

Time 2026-04-22 08:26
Airport Ninoy Aquino International Airport (RPLL)
Time Latitude Longitude Altitude Speed Heading
2026-04-22 07:04 9.74492 118.75058 86 ft 0 kts
2026-04-22 07:22 9.74486 118.75058 86 ft 2 kts
2026-04-22 07:22 9.74470 118.75058 87 ft 2 kts 360°
2026-04-22 07:23 9.74453 118.75058 90 ft 2 kts 357°
2026-04-22 07:23 9.74437 118.75060 89 ft 2 kts 349°
2026-04-22 07:23 9.74421 118.75065 90 ft 2 kts 315°
2026-04-22 07:23 9.74415 118.75080 89 ft 2 kts 271°
2026-04-22 07:24 9.74414 118.75096 88 ft 2 kts 271°
2026-04-22 07:24 9.74414 118.75111 89 ft 1 kts 272°
2026-04-22 07:24 9.74413 118.75113 88 ft 0 kts 272°
2026-04-22 07:26 9.74414 118.75112 89 ft 1 kts 272°
2026-04-22 07:27 9.74415 118.75074 89 ft 8 kts 272°
2026-04-22 07:27 9.74418 118.74990 86 ft 16 kts 272°
2026-04-22 07:27 9.74423 118.74857 86 ft 22 kts 272°
2026-04-22 07:27 9.74427 118.74761 88 ft 10 kts 272°
2026-04-22 07:28 9.74309 118.74704 87 ft 13 kts 181°
2026-04-22 07:28 9.74267 118.74739 85 ft 8 kts 103°
2026-04-22 07:28 9.74264 118.74769 85 ft 0 kts 93°
2026-04-22 07:29 9.74263 118.74788 85 ft 14 kts 93°
2026-04-22 07:29 9.74249 118.75093 88 ft 84 kts 92°
2026-04-22 07:30 9.74213 118.75950 88 ft 156 kts 92°
2026-04-22 07:30 9.74161 118.77169 517 ft 175 kts 92°
2026-04-22 07:30 9.74106 118.78398 1433 ft 169 kts 87°
2026-04-22 07:30 9.74549 118.79513 2160 ft 183 kts 47°
2026-04-22 07:31 9.75761 118.80122 2460 ft 213 kts 13°
2026-04-22 07:31 9.77294 118.80374 2868 ft 237 kts 13°
2026-04-22 07:31 9.78981 118.80710 3301 ft 260 kts 14°
2026-04-22 07:31 9.80774 118.81111 4163 ft 266 kts 15°
2026-04-22 07:32 9.82593 118.81552 5088 ft 272 kts 16°
2026-04-22 07:32 9.84446 118.82024 5958 ft 278 kts 15°
2026-04-22 07:32 9.86339 118.82513 6808 ft 283 kts 15°
2026-04-22 07:32 9.88267 118.83013 7625 ft 289 kts 15°
2026-04-22 07:33 9.90270 118.83376 8318 ft 299 kts
2026-04-22 07:33 9.92363 118.83367 9148 ft 303 kts 358°
2026-04-22 07:33 9.94456 118.83257 9951 ft 309 kts 357°
2026-04-22 07:33 9.96640 118.83138 10530 ft 324 kts 357°
2026-04-22 07:34 9.98992 118.83026 10798 ft 352 kts 357°
2026-04-22 07:34 10.01515 118.82925 11240 ft 370 kts 357°
2026-04-22 07:34 10.04115 118.82837 12189 ft 375 kts 357°
2026-04-22 07:34 10.06708 118.82756 13350 ft 373 kts 357°
2026-04-22 07:35 10.09324 118.82676 14213 ft 380 kts 357°
2026-04-22 07:35 10.11989 118.82597 15026 ft 386 kts 357°
2026-04-22 07:35 10.14695 118.82517 15785 ft 393 kts 357°
2026-04-22 07:35 10.17439 118.82434 16611 ft 398 kts 357°
2026-04-22 07:36 10.20231 118.82346 17387 ft 404 kts 356°
2026-04-22 07:36 10.23055 118.82257 18165 ft 409 kts 357°
2026-04-22 07:36 10.25920 118.82167 18794 ft 416 kts 357°
2026-04-22 07:36 10.28794 118.82077 19426 ft 422 kts 357°
2026-04-22 07:37 10.31747 118.81985 20082 ft 427 kts 358°
2026-04-22 07:37 10.34730 118.81892 20757 ft 432 kts 358°
2026-04-22 07:37 10.37749 118.81798 21445 ft 436 kts 358°
2026-04-22 07:37 10.40800 118.81705 22096 ft 441 kts 359°
2026-04-22 07:38 10.43885 118.81740 22731 ft 446 kts
2026-04-22 07:38 10.47010 118.81943 23315 ft 452 kts
2026-04-22 07:38 10.50152 118.82212 23936 ft 454 kts
2026-04-22 07:38 10.53308 118.82490 24529 ft 457 kts
2026-04-22 07:39 10.56494 118.82757 25045 ft 461 kts
2026-04-22 07:39 10.59663 118.83005 25611 ft 464 kts
2026-04-22 07:39 10.62937 118.83247 26193 ft 467 kts
2026-04-22 07:39 10.66144 118.83475 26737 ft 470 kts
2026-04-22 07:40 10.69419 118.83703 27271 ft 474 kts
2026-04-22 07:40 10.72715 118.83931 27877 ft 475 kts
2026-04-22 07:40 10.76022 118.84161 28450 ft 478 kts
2026-04-22 07:40 10.79344 118.84392 28963 ft 481 kts
2026-04-22 07:41 10.82705 118.84628 29455 ft 485 kts
2026-04-22 07:41 10.86081 118.84864 29965 ft 488 kts
2026-04-22 07:41 10.89477 118.85102 30390 ft 491 kts
2026-04-22 07:41 10.92851 118.85340 30754 ft 494 kts
2026-04-22 07:42 10.96295 118.85582 31090 ft 498 kts
2026-04-22 07:42 10.99763 118.85826 31460 ft 500 kts
2026-04-22 07:42 11.03244 118.86071 31908 ft 500 kts
2026-04-22 07:42 11.06722 118.86315 32468 ft 498 kts
2026-04-22 07:43 11.10177 118.86558 33000 ft 497 kts
2026-04-22 07:43 11.13616 118.86799 33502 ft 496 kts
2026-04-22 07:43 11.17021 118.87039 33931 ft 496 kts
2026-04-22 07:43 11.20461 118.87282 34342 ft 496 kts
2026-04-22 07:44 11.23899 118.87525 34757 ft 495 kts
2026-04-22 07:44 11.27337 118.87769 35174 ft 494 kts
2026-04-22 07:44 11.30759 118.88011 35581 ft 493 kts
2026-04-22 07:44 11.34178 118.88253 35985 ft 492 kts
2026-04-22 07:45 11.37597 118.88495 36371 ft 492 kts
2026-04-22 07:45 11.41008 118.88736 36760 ft 492 kts
2026-04-22 07:45 11.47866 118.89221 36839 ft 494 kts
2026-04-22 07:46 11.54595 118.90461 36842 ft 493 kts 16°
2026-04-22 07:46 11.60890 118.93119 36842 ft 494 kts 26°
2026-04-22 07:47 11.67001 118.96336 36838 ft 495 kts 26°
2026-04-22 07:47 11.73118 118.99579 36837 ft 495 kts 26°
2026-04-22 07:48 11.79209 119.02765 36839 ft 496 kts 26°
2026-04-22 07:48 11.85360 119.05959 36835 ft 496 kts 26°
2026-04-22 07:49 11.91524 119.09155 36843 ft 497 kts 26°
2026-04-22 07:49 11.97691 119.12356 36842 ft 497 kts 26°
2026-04-22 07:50 12.03860 119.15561 36826 ft 497 kts 26°
2026-04-22 07:50 12.09983 119.18745 36841 ft 497 kts 26°
2026-04-22 07:51 12.16142 119.21950 36845 ft 497 kts 26°
2026-04-22 07:51 12.22302 119.25156 36829 ft 496 kts 26°
2026-04-22 07:52 12.28457 119.28362 36830 ft 496 kts 26°
2026-04-22 07:52 12.34598 119.31561 36843 ft 496 kts 26°
2026-04-22 07:53 12.40702 119.34744 36846 ft 495 kts 26°
2026-04-22 07:53 12.46838 119.37944 36829 ft 495 kts 26°
2026-04-22 07:54 12.52979 119.41150 36841 ft 495 kts 26°
2026-04-22 07:54 12.59116 119.44354 36847 ft 495 kts 26°
2026-04-22 07:55 12.65245 119.47556 36845 ft 495 kts 26°
2026-04-22 07:55 12.71334 119.50739 36844 ft 494 kts 26°
2026-04-22 07:56 12.77459 119.53942 36834 ft 494 kts 26°
2026-04-22 07:56 12.83585 119.57148 36836 ft 494 kts 26°
2026-04-22 07:57 12.89705 119.60353 36838 ft 494 kts 26°
2026-04-22 07:57 12.95827 119.63560 36849 ft 494 kts 26°
2026-04-22 07:58 13.01924 119.66756 36825 ft 486 kts 26°
2026-04-22 07:58 13.04869 119.68302 36606 ft 479 kts 26°
2026-04-22 07:58 13.07823 119.69852 36174 ft 475 kts 26°
2026-04-22 07:59 13.10752 119.71388 35750 ft 471 kts 26°
2026-04-22 07:59 13.13656 119.72912 35287 ft 467 kts 26°
2026-04-22 07:59 13.16539 119.74426 34837 ft 465 kts 26°
2026-04-22 07:59 13.19403 119.75929 34354 ft 463 kts 26°
2026-04-22 08:00 13.22267 119.77433 33887 ft 460 kts 26°
2026-04-22 08:00 13.25118 119.78931 33356 ft 458 kts 26°
2026-04-22 08:00 13.27944 119.80416 32874 ft 455 kts 26°
2026-04-22 08:00 13.30750 119.81891 32404 ft 452 kts 26°
2026-04-22 08:01 13.33538 119.83357 31942 ft 449 kts 26°
2026-04-22 08:01 13.36308 119.84814 31482 ft 446 kts 26°
2026-04-22 08:01 13.39025 119.86243 31047 ft 443 kts 26°
2026-04-22 08:01 13.41754 119.87680 30589 ft 440 kts 26°
2026-04-22 08:02 13.44471 119.89110 30131 ft 438 kts 26°
2026-04-22 08:02 13.47176 119.90534 29635 ft 436 kts 26°
2026-04-22 08:02 13.49872 119.91953 29130 ft 433 kts 26°
2026-04-22 08:02 13.52544 119.93361 28653 ft 430 kts 26°
2026-04-22 08:03 13.55195 119.94758 28186 ft 427 kts 26°
2026-04-22 08:03 13.57830 119.96147 27727 ft 424 kts 26°
2026-04-22 08:03 13.60448 119.97527 27278 ft 422 kts 26°
2026-04-22 08:03 13.63046 119.98897 26832 ft 419 kts 26°
2026-04-22 08:04 13.65642 120.00266 26386 ft 417 kts 26°
2026-04-22 08:04 13.71752 120.03490 25324 ft 414 kts 26°
2026-04-22 08:05 13.76035 120.05751 24564 ft 412 kts 26°
2026-04-22 08:05 13.78551 120.07080 24124 ft 411 kts 26°
2026-04-22 08:05 13.81088 120.08420 23678 ft 411 kts 26°
2026-04-22 08:05 13.83631 120.09763 23313 ft 407 kts 26°
2026-04-22 08:06 13.86126 120.11069 23050 ft 400 kts 24°
2026-04-22 08:06 13.88634 120.12258 22735 ft 394 kts 22°
2026-04-22 08:06 13.91104 120.13361 22372 ft 376 kts 21°
2026-04-22 08:06 13.93466 120.14398 21771 ft 365 kts 22°
2026-04-22 08:07 13.95800 120.15424 21346 ft 365 kts 22°
2026-04-22 08:07 13.98100 120.16441 20935 ft 364 kts 22°
2026-04-22 08:07 14.00445 120.17487 20523 ft 363 kts 22°
2026-04-22 08:07 14.02727 120.18509 20126 ft 362 kts 22°
2026-04-22 08:08 14.05030 120.19544 19705 ft 361 kts 22°
2026-04-22 08:08 14.07324 120.20578 19298 ft 360 kts 22°
2026-04-22 08:08 14.09611 120.21609 18872 ft 352 kts 23°
2026-04-22 08:08 14.11812 120.22603 18492 ft 342 kts 23°
2026-04-22 08:09 14.13992 120.23588 18097 ft 342 kts 23°
2026-04-22 08:09 14.16175 120.24574 17653 ft 342 kts 23°
2026-04-22 08:09 14.18350 120.25556 17242 ft 341 kts 23°
2026-04-22 08:09 14.20515 120.26534 16849 ft 339 kts 23°
2026-04-22 08:10 14.22669 120.27508 16454 ft 338 kts 23°
2026-04-22 08:10 14.24790 120.28466 16072 ft 337 kts 23°
2026-04-22 08:10 14.26934 120.29435 15687 ft 336 kts 23°
2026-04-22 08:10 14.29065 120.30399 15298 ft 331 kts 23°
2026-04-22 08:11 14.31122 120.31330 14897 ft 317 kts 23°
2026-04-22 08:11 14.33134 120.32240 14558 ft 316 kts 23°
2026-04-22 08:11 14.35144 120.33149 14186 ft 315 kts 24°
2026-04-22 08:11 14.37154 120.34059 13823 ft 316 kts 23°
2026-04-22 08:12 14.39162 120.34968 13431 ft 316 kts 24°
2026-04-22 08:12 14.41179 120.35880 13035 ft 315 kts 24°
2026-04-22 08:12 14.43153 120.36820 12643 ft 310 kts 31°
2026-04-22 08:12 14.44732 120.38257 12288 ft 307 kts 54°
2026-04-22 08:13 14.45844 120.40109 12036 ft 300 kts 60°
2026-04-22 08:13 14.46869 120.41969 11712 ft 299 kts 60°
2026-04-22 08:13 14.47890 120.43833 11375 ft 298 kts 60°
2026-04-22 08:13 14.48912 120.45696 11040 ft 297 kts 60°
2026-04-22 08:14 14.49936 120.47549 10702 ft 297 kts 60°
2026-04-22 08:14 14.50854 120.49206 10384 ft 297 kts 60°
2026-04-22 08:14 14.51875 120.51043 10153 ft 292 kts 60°
2026-04-22 08:14 14.52868 120.52825 9964 ft 287 kts 60°
2026-04-22 08:15 14.53867 120.54616 9618 ft 287 kts 60°
2026-04-22 08:15 14.54851 120.56381 9281 ft 287 kts 60°
2026-04-22 08:15 14.55834 120.58143 8909 ft 275 kts 60°
2026-04-22 08:15 14.56772 120.59823 8637 ft 269 kts 61°
2026-04-22 08:16 14.57703 120.61493 8321 ft 268 kts 60°
2026-04-22 08:16 14.58628 120.63152 8023 ft 266 kts 61°
2026-04-22 08:16 14.59550 120.64804 7769 ft 263 kts 61°
2026-04-22 08:16 14.60173 120.66501 7639 ft 249 kts 85°
2026-04-22 08:17 14.59958 120.68218 7486 ft 241 kts 111°
2026-04-22 08:17 14.59123 120.69739 7224 ft 247 kts 127°
2026-04-22 08:17 14.57827 120.70909 6953 ft 255 kts 147°
2026-04-22 08:17 14.56252 120.71822 6675 ft 257 kts 150°
2026-04-22 08:18 14.54701 120.72683 6416 ft 255 kts 149°
2026-04-22 08:18 14.53175 120.73547 6265 ft 243 kts 149°
2026-04-22 08:18 14.51769 120.74357 6134 ft 227 kts 149°
2026-04-22 08:18 14.50387 120.75159 5855 ft 225 kts 148°
2026-04-22 08:19 14.49041 120.75952 5608 ft 222 kts 148°
2026-04-22 08:19 14.47705 120.76741 5347 ft 219 kts 148°
2026-04-22 08:19 14.46391 120.77518 5089 ft 217 kts 148°
2026-04-22 08:19 14.45088 120.78289 4815 ft 211 kts 148°
2026-04-22 08:20 14.43849 120.79022 4584 ft 202 kts 148°
2026-04-22 08:20 14.42639 120.79738 4384 ft 203 kts 148°
2026-04-22 08:20 14.41440 120.80522 4077 ft 204 kts 135°
2026-04-22 08:20 14.40731 120.81732 3809 ft 193 kts 105°
2026-04-22 08:21 14.40491 120.83024 3558 ft 183 kts 88°
2026-04-22 08:21 14.40937 120.84209 3349 ft 177 kts 57°
2026-04-22 08:21 14.41615 120.85279 3139 ft 180 kts 62°
2026-04-22 08:21 14.42237 120.86384 2902 ft 176 kts 62°
2026-04-22 08:22 14.42830 120.87448 2660 ft 165 kts 64°
2026-04-22 08:22 14.43371 120.88425 2468 ft 151 kts 63°
2026-04-22 08:22 14.43885 120.89351 2290 ft 147 kts 63°
2026-04-22 08:22 14.44404 120.90288 2118 ft 154 kts 64°
2026-04-22 08:23 14.44937 120.91259 1877 ft 153 kts 63°
2026-04-22 08:23 14.45441 120.92166 1717 ft 144 kts 64°
2026-04-22 08:23 14.45950 120.93080 1519 ft 150 kts 64°
2026-04-22 08:23 14.46466 120.94018 1316 ft 147 kts 64°
2026-04-22 08:24 14.46974 120.94939 1156 ft 148 kts 64°
2026-04-22 08:24 14.47484 120.95861 971 ft 149 kts 65°
2026-04-22 08:24 14.47996 120.96784 798 ft 148 kts 63°
2026-04-22 08:24 14.48507 120.97703 592 ft 146 kts 63°
2026-04-22 08:25 14.49023 120.98607 401 ft 146 kts 64°
2026-04-22 08:25 14.49525 120.99518 223 ft 143 kts 64°
2026-04-22 08:25 14.50023 121.00427 67 ft 146 kts 63°
2026-04-22 08:25 14.50468 121.01232 66 ft 108 kts 60°
2026-04-22 08:26 14.50766 121.01770 72 ft 64 kts 60°
2026-04-22 08:26 14.50911 121.02033 66 ft 26 kts 60°
2026-04-22 08:26 14.51001 121.02182 67 ft 25 kts 51°
2026-04-22 08:26 14.51124 121.02292 68 ft 17 kts 33°
2026-04-22 08:27 14.51181 121.02283 66 ft 9 kts 302°
2026-04-22 08:27 14.51168 121.02218 64 ft 10 kts 242°
2026-04-22 08:27 14.51132 121.02153 64 ft 11 kts 241°
2026-04-22 08:27 14.51092 121.02079 65 ft 12 kts 241°
2026-04-22 08:28 14.51049 121.01999 65 ft 13 kts 240°
2026-04-22 08:28 14.51000 121.01914 63 ft 14 kts 238°
2026-04-22 08:28 14.50950 121.01826 65 ft 14 kts 241°
2026-04-22 08:28 14.50901 121.01734 63 ft 12 kts 241°
2026-04-22 08:29 14.50899 121.01666 63 ft 10 kts 301°
2026-04-22 08:29 14.50914 121.01647 63 ft 10 kts 312°